Simultaneous Nadir Overpasses (SNOs) Predictions

Prediction of SNOs between NOAA-20 and METOP-C Satellite Orbit:

Table of predicted SNOs for the next 14.0 days since TLE Epoch: 5/1/2021
Index Date (NOAA-20) Time (NOAA-20) Lat,Lon (NOAA-20) SZA (NOAA-20 ) Date (METOP-C) Time (METOP-C) Lat,Lon (METOP-C) SZA (METOP-C ) Distance(km) Time Diff (sec)
1 05/09/2021 04:26:49 -73.37, -76.20 123.92 05/09/2021 04:27:56 -73.32, -73.53 124.09 85.25 67
2 05/09/2021 05:17:31 73.17, 91.55 55.86 05/09/2021 05:18:40 73.12, 93.36 55.72 58.73 69
3 05/09/2021 06:08:13 -73.07,-100.92 124.27 05/09/2021 06:09:24 -73.00, -99.57 124.41 44.47 71
4 05/09/2021 06:58:55 72.87, 66.81 55.51 05/09/2021 07:00:08 72.80, 67.33 55.40 18.92 73
5 05/09/2021 07:49:37 -72.77,-125.66 124.61 05/09/2021 07:50:51 -72.73,-125.49 124.68 7.80 74
6 05/09/2021 08:40:22 72.73, 41.75 55.33 05/09/2021 08:41:31 72.72, 41.84 55.32 3.00 69
7 05/09/2021 09:31:06 -72.73,-150.94 124.68 05/09/2021 09:32:13 -72.71,-150.87 124.71 3.32 67
8 05/09/2021 10:21:51 72.68, 16.47 55.26 05/09/2021 10:22:53 72.70, 16.46 55.28 2.79 62
9 05/09/2021 11:12:35 -72.68,-176.22 124.75 05/09/2021 11:13:35 -72.69,-176.25 124.75 1.24 60
10 05/09/2021 12:03:20 72.68, -8.91 55.25 05/09/2021 12:04:14 72.68, -8.93 55.24 0.58 54
11 05/09/2021 12:54:04 -72.69, 158.40 124.76 05/09/2021 12:54:56 -72.66, 158.36 124.79 2.61 52
12 05/09/2021 13:44:50 72.69, -34.29 55.24 05/09/2021 13:45:36 72.66, -34.31 55.20 3.02 46
13 05/09/2021 14:35:34 -72.69, 133.02 124.78 05/09/2021 14:36:17 -72.69, 133.08 124.78 2.27 43
14 05/09/2021 15:26:20 72.69, -59.68 55.22 05/09/2021 15:26:57 72.69, -59.59 55.21 2.78 37
15 05/09/2021 16:17:04 -72.69, 107.63 124.79 05/09/2021 16:17:39 -72.67, 107.70 124.82 3.16 35
16 05/09/2021 17:07:49 72.64, -84.96 55.15 05/09/2021 17:08:19 72.67, -84.98 55.17 2.76 30
17 05/09/2021 17:58:33 -72.65, 82.36 124.86 05/09/2021 17:59:01 -72.65, 82.32 124.86 1.41 28
18 05/09/2021 18:49:19 72.65,-110.34 55.14 05/09/2021 18:49:41 72.65,-110.36 55.13 0.81 22
19 05/09/2021 19:40:03 -72.65, 56.97 124.87 05/09/2021 19:40:23 -72.63, 56.93 124.90 2.63 20
20 05/09/2021 20:30:49 72.65,-135.72 55.12 05/09/2021 20:31:03 72.62,-135.75 55.09 3.15 14
21 05/09/2021 21:21:33 -72.65, 31.59 124.89 05/09/2021 21:21:44 -72.66, 31.65 124.89 2.14 11
22 05/09/2021 22:12:19 72.65,-161.10 55.11 05/09/2021 22:12:24 72.65,-161.03 55.10 2.58 5
23 05/09/2021 23:03:03 -72.66, 6.21 124.90 05/09/2021 23:03:06 -72.64, 6.27 124.93 3.01 3
24 05/09/2021 23:53:48 72.61, 173.62 55.04 05/09/2021 23:53:46 72.63, 173.59 55.06 2.74 2
25 05/10/2021 00:44:32 -72.61, -19.07 124.97 05/10/2021 00:44:28 -72.62, -19.11 124.96 1.56 4
26 05/10/2021 01:35:18 72.61, 148.24 55.03 05/10/2021 01:35:08 72.61, 148.21 55.03 1.01 10
27 05/10/2021 02:26:02 -72.61, -44.45 124.99 05/10/2021 02:25:50 -72.59, -44.50 125.00 2.65 12
28 05/10/2021 03:16:48 72.62, 122.85 55.01 05/10/2021 03:16:30 72.59, 122.82 54.99 3.29 18
29 05/10/2021 04:07:32 -72.62, -69.84 125.00 05/10/2021 04:07:11 -72.62, -69.78 124.99 2.03 21
30 05/10/2021 04:58:18 72.62, 97.47 55.00 05/10/2021 04:57:51 72.62, 97.54 55.00 2.40 27
31 05/10/2021 05:49:02 -72.62, -95.22 125.01 05/10/2021 05:48:33 -72.60, -95.16 125.03 2.89 29
32 05/10/2021 06:39:47 72.57, 72.19 54.93 05/10/2021 06:39:13 72.60, 72.16 54.96 2.73 34
33 05/10/2021 07:30:31 -72.58,-120.50 125.08 05/10/2021 07:29:55 -72.58,-120.54 125.07 1.69 36
34 05/10/2021 08:21:17 72.58, 46.81 54.91 05/10/2021 08:20:35 72.57, 46.77 54.92 1.21 42
35 05/10/2021 09:12:01 -72.58,-145.88 125.10 05/10/2021 09:11:17 -72.56,-145.93 125.11 2.67 44
36 05/10/2021 10:02:47 72.58, 21.43 54.90 05/10/2021 10:01:56 72.60, 21.49 54.93 3.33 51
37 05/10/2021 10:53:31 -72.58,-171.26 125.11 05/10/2021 10:52:38 -72.59,-171.21 125.10 1.94 53
38 05/10/2021 11:44:17 72.58, -3.96 54.89 05/10/2021 11:43:18 72.58, -3.89 54.89 2.25 59
39 05/10/2021 12:35:01 -72.59, 163.35 125.13 05/10/2021 12:34:00 -72.57, 163.41 125.14 2.78 61
40 05/10/2021 13:25:46 72.54, -29.24 54.82 05/10/2021 13:24:40 72.56, -29.27 54.85 2.71 66
41 05/10/2021 14:16:30 -72.54, 138.08 125.19 05/10/2021 14:15:22 -72.55, 138.03 125.17 1.80 68
42 05/10/2021 15:07:16 72.54, -54.62 54.80 05/10/2021 15:06:02 72.54, -54.66 54.81 1.38 74
43 05/10/2021 15:57:59 -72.49, 112.79 125.26 05/10/2021 15:56:45 -72.47, 112.54 125.26 8.77 74
44 05/10/2021 16:48:40 72.24, -79.39 54.46 05/10/2021 16:47:29 72.26, -80.55 54.54 39.18 71
45 05/10/2021 17:39:23 -72.19, 88.01 125.60 05/10/2021 17:38:12 -72.20, 86.66 125.52 46.14 71
46 05/10/2021 18:30:04 71.93,-104.19 54.12 05/10/2021 18:28:56 71.98,-106.42 54.28 77.09 68
47 05/10/2021 19:20:47 -71.89, 63.22 125.95 05/10/2021 19:19:40 -71.87, 60.70 125.84 87.22 67



Historial Predications of SNOs between NOAA-20 and METOP-C
